Derebucak, Turkey

1:56 PM +03 on August 24, 2017 (GMT +0300)
Derebucak

Weather History for 17300 - November, 2013

Change the Weather History Date:

Tuesday, November 5, 2013

  Actual Average Record
Temperature  
Mean Temperature 66 °F -  
Max Temperature 74 °F 69 °F - ()
Min Temperature 57 °F 50 °F - ()
Growing Degree Days 16 (Base 50)    
Moisture  
Dew Point 56 °F    
Average Humidity 75    
Maximum Humidity 88    
Minimum Humidity 41    
Precipitation  
Precipitation 0.00 in 0.21 in - ()
Sea Level Pressure  
Sea Level Pressure 30.03 in    
Wind  
Wind Speed 4 mph ()    
Max Wind Speed 9 mph    
Max Gust Speed -    
Visibility 6.2 miles    
Events Rain    
T = Trace of Precipitation, MM = Missing Value Source: Averaged Metar Reports

Daily Weather History Graph

Daily Weather History Graph

Search for Another Location

Airport or City:

Trip Planner

Search our weather history database for the weather conditions in past years. The results will help you decide how hot, cold, wet, or windy it might be!

Date:

Astronomy

Nov. 05, 2013 Rise Set
Actual Time 6:24 AM EET 4:56 PM EET
Civil Twilight 5:57 AM EET 5:23 PM EET
Nautical Twilight 5:26 AM EET 5:53 PM EET
Astronomical Twilight 4:56 AM EET 6:24 PM EET
Moon 8:16 AM EET (11/5) 6:40 PM EET (11/5)
Length of Visible Light 11h 25m
Length of Day
10h 31m
Waxing Crescent, 5% of the Moon is Illuminated
Nov 5
Waxing Crescent
Nov 10
First Quarter
Nov 17
Full
Nov 25
Last Quarter
Dec 3
New

Hourly Weather History & Observations

Time (EET) Temp. Dew Point Humidity Pressure Visibility Wind Dir Wind Speed Gust Speed Precip Events Conditions
12:20 AM 59.0 °F 55.4 °F 88% 30.09 in 6.2 mi ENE 3.5 mph - N/A   Partly Cloudy
12:50 AM 59.0 °F 55.4 °F 88% 30.06 in 6.2 mi North 3.5 mph - N/A   Partly Cloudy
1:20 AM 59.0 °F 55.4 °F 88% 30.06 in 6.2 mi NW 4.6 mph - N/A   Partly Cloudy
1:50 AM 59.0 °F 55.4 °F 88% 30.06 in 6.2 mi North 3.5 mph - N/A   Partly Cloudy
2:00 AM 59 °F 55 °F 82% 30.06 in 6 mi North 3.5 mph - -   Scattered Clouds
2:20 AM 59.0 °F 55.4 °F 88% 30.06 in 6.2 mi North 5.8 mph - N/A   Scattered Clouds
2:50 AM 59.0 °F 55.4 °F 88% 30.04 in 6.2 mi North 3.5 mph - N/A   Scattered Clouds
3:20 AM 60.8 °F 55.4 °F 82% 30.04 in 6.2 mi NNW 3.5 mph - N/A   Scattered Clouds
3:50 AM 59.0 °F 53.6 °F 82% 30.04 in 6.2 mi North 5.8 mph - N/A   Scattered Clouds
4:20 AM 60.8 °F 53.6 °F 77% 30.04 in 6.2 mi North 5.8 mph - N/A   Scattered Clouds
4:50 AM 59.0 °F 55.4 °F 88% 30.04 in 6.2 mi North 5.8 mph - N/A   Mostly Cloudy
5:20 AM 60.8 °F 55.4 °F 82% 30.04 in 6.2 mi North 5.8 mph - N/A   Mostly Cloudy
5:50 AM 60.8 °F 53.6 °F 77% 30.04 in 6.2 mi North 6.9 mph - N/A   Mostly Cloudy
6:20 AM 60.8 °F 53.6 °F 77% 30.04 in 6.2 mi Variable 4.6 mph - N/A   Mostly Cloudy
6:50 AM 60.8 °F 53.6 °F 77% 30.04 in 6.2 mi North 4.6 mph - N/A Rain Light Rain
7:20 AM 60.8 °F 53.6 °F 77% 30.06 in 6.2 mi NW 6.9 mph - N/A   Mostly Cloudy
7:50 AM 62.6 °F 55.4 °F 77% 30.06 in 6.2 mi NW 4.6 mph - N/A   Mostly Cloudy
8:00 AM 63 °F 55 °F 68% 30.05 in 6 mi NW 4.6 mph - - Rain Light Rain
8:20 AM 64.4 °F 55.4 °F 73% 30.06 in 6.2 mi NNW 3.5 mph - N/A   Mostly Cloudy
8:50 AM 66.2 °F 53.6 °F 64% 30.06 in 6.2 mi North 4.6 mph - N/A   Mostly Cloudy
9:20 AM 68.0 °F 53.6 °F 60% 30.06 in 6.2 mi North 6.9 mph - N/A   Scattered Clouds
9:50 AM 69.8 °F 51.8 °F 53% 30.06 in 6.2 mi NNE 5.8 mph - N/A   Scattered Clouds
10:20 AM 73.4 °F 53.6 °F 50% 30.04 in 6.2 mi Variable 3.5 mph - N/A   Scattered Clouds
10:50 AM 73.4 °F 51.8 °F 47% 30.04 in 6.2 mi Variable 4.6 mph - N/A   Scattered Clouds
11:20 AM 73.4 °F 51.8 °F 47% 30.04 in 6.2 mi SE 6.9 mph - N/A   Scattered Clouds
11:50 AM 71.6 °F 53.6 °F 53% 30.04 in 6.2 mi South 8.1 mph - N/A   Scattered Clouds
12:20 PM 71.6 °F 57.2 °F 60% 30.04 in 6.2 mi South 6.9 mph - N/A   Scattered Clouds
12:50 PM 71.6 °F 57.2 °F 60% 30.01 in 6.2 mi South 9.2 mph - N/A   Scattered Clouds
1:20 PM 71.6 °F 57.2 °F 60% 30.01 in 6.2 mi South 9.2 mph - N/A   Scattered Clouds
1:50 PM 71.6 °F 55.4 °F 57% 30.01 in 6.2 mi South 8.1 mph - N/A   Scattered Clouds
2:00 PM 72 °F 53 °F 41% 30.00 in 6 mi South 8.1 mph - -   Partly Cloudy
2:20 PM 73.4 °F 51.8 °F 47% 30.01 in 6.2 mi South 8.1 mph - N/A   Scattered Clouds
2:50 PM 71.6 °F 53.6 °F 53% 30.01 in - South 5.8 mph - N/A   Clear
3:20 PM 71.6 °F 57.2 °F 60% 30.01 in 6.2 mi SSE 6.9 mph - N/A   Scattered Clouds
3:50 PM 69.8 °F 59.0 °F 68% 30.01 in 6.2 mi South 6.9 mph - N/A   Scattered Clouds
4:20 PM 68.0 °F 60.8 °F 78% 29.98 in 6.2 mi South 4.6 mph - N/A   Scattered Clouds
4:50 PM 66.2 °F 60.8 °F 83% 29.98 in 6.2 mi SSE 3.5 mph - N/A   Scattered Clouds
5:20 PM 66.2 °F 60.8 °F 83% 30.01 in 6.2 mi SE 3.5 mph - N/A   Scattered Clouds
5:50 PM 64.4 °F 60.8 °F 88% 30.01 in 6.2 mi East 2.3 mph - N/A   Scattered Clouds
6:20 PM 64.4 °F 60.8 °F 88% 30.01 in 6.2 mi NNE 3.5 mph - N/A   Scattered Clouds
6:50 PM 64.4 °F 60.8 °F 88% 30.01 in 6.2 mi NE 4.6 mph - N/A   Scattered Clouds
7:20 PM 64.4 °F 60.8 °F 88% 30.01 in 6.2 mi ENE 4.6 mph - N/A   Scattered Clouds
7:50 PM 62.6 °F 59.0 °F 88% 30.04 in 6.2 mi East 3.5 mph - N/A   Scattered Clouds
8:00 PM 63 °F 60 °F 85% 30.01 in 6 mi East 3.5 mph - -   Partly Cloudy
8:20 PM 64.4 °F 60.8 °F 88% 30.01 in 6.2 mi ENE 4.6 mph - N/A   Scattered Clouds
8:50 PM 62.6 °F 59.0 °F 88% 30.04 in 6.2 mi ENE 3.5 mph - N/A   Scattered Clouds
9:20 PM 62.6 °F 59.0 °F 88% 30.04 in 6.2 mi East 3.5 mph - N/A   Scattered Clouds
9:50 PM 62.6 °F 59.0 °F 88% 30.04 in 6.2 mi ENE 3.5 mph - N/A   Scattered Clouds
10:20 PM 60.8 °F 57.2 °F 88% 30.01 in 6.2 mi ENE 4.6 mph - N/A   Scattered Clouds
10:50 PM 62.6 °F 57.2 °F 82% 30.04 in 6.2 mi NE 4.6 mph - N/A   Scattered Clouds
11:20 PM 62.6 °F 57.2 °F 82% 30.04 in 6.2 mi North 3.5 mph - N/A   Scattered Clouds
11:50 PM 60.8 °F 57.2 °F 88% 30.04 in 6.2 mi Variable 2.3 mph - N/A   Scattered Clouds